Weather History for Weslaco, TX

Change the Weather History Date:

Thursday, September 27, 2012

  Actual Average (KMFE) Record (KMFE)
Temperature  
Mean Temperature 83 °F 81 °F  
Max Temperature 93 °F 91 °F 101 °F (2005)
Min Temperature 73 °F 71 °F 56 °F (2000)
Degree Days  
Heating Degree Days 0 0  
Month to date heating degree days 0  
Since 1 July heating degree days 0  
Cooling Degree Days 18 16  
Month to date cooling degree days 502  
Year to date cooling degree days 3753  
Growing Degree Days 33 (Base 50)    
Moisture  
Dew Point 71 °F    
Average Humidity 73    
Maximum Humidity 94    
Minimum Humidity 46    
Precipitation  
Precipitation 0.28 in 0.11 in 2.27 in (2014)
Month to date precipitation 4.12  
Year to date precipitation 17.69  
Sea Level Pressure  
Sea Level Pressure 29.96 in    
Wind  
Wind Speed 5 mph (ESE)    
Max Wind Speed 22 mph    
Max Gust Speed 41 mph    
Visibility 10 miles    
Events Rain , Thunderstorm    
T = Trace of Precipitation, MM = Missing Value Source: NWS Daily Summary

Daily Weather History Graph

Daily Weather History Graph

Search for Another Location

Airport:

Trip Planner

Search our weather history database for the weather conditions in past years. The results will help you decide how hot, cold, wet, or windy it might be!

Date:

Astronomy

Sep. 27, 2012 Rise Set
Actual Time 7:22 AM CDT 7:22 PM CDT
Civil Twilight 6:59 AM CDT 7:45 PM CDT
Nautical Twilight 6:32 AM CDT 8:11 PM CDT
Astronomical Twilight 6:06 AM CDT 8:38 PM CDT
Moon 5:47 PM CDT (9/27) 5:03 AM CDT (9/27)
Length of Visible Light 12h 45m
Length of Day
11h 59m
Waxing Gibbous, 94% of the Moon is Illuminated
Sep 27
Waxing Gibbous
Sep 29
Full
Oct 8
Last Quarter
Oct 15
New
Oct 21
First Quarter

Hourly Weather History & Observations

Time (CDT) Temp. Heat Index Dew Point Humidity Pressure Visibility Wind Dir Wind Speed Gust Speed Precip Events Conditions
12:35 AM 78.8 °F - 71.6 °F 78% 29.97 in 10.0 mi ESE 3.5 mph - N/A   Clear
12:55 AM 78.8 °F - 71.6 °F 78% 29.97 in 10.0 mi SE 3.5 mph - N/A   Clear
1:15 AM 77.0 °F - 71.6 °F 83% 29.97 in 10.0 mi Calm Calm - N/A   Clear
1:35 AM 78.8 °F - 71.6 °F 78% 29.97 in 10.0 mi ESE 3.5 mph - N/A   Clear
1:55 AM 78.8 °F - 71.6 °F 78% 29.96 in 10.0 mi ESE 3.5 mph - N/A   Clear
2:15 AM 77.0 °F - 71.6 °F 83% 29.96 in 10.0 mi SE 3.5 mph - N/A   Clear
2:35 AM 77.0 °F - 71.6 °F 83% 29.96 in 10.0 mi Calm Calm - N/A   Clear
2:55 AM 77.0 °F - 71.6 °F 83% 29.97 in 10.0 mi Calm Calm - N/A   Clear
3:15 AM 75.2 °F - 71.6 °F 89% 29.97 in 10.0 mi NNE 3.5 mph - N/A   Clear
3:35 AM 75.2 °F - 71.6 °F 89% 29.97 in 10.0 mi Calm Calm - N/A   Clear
3:55 AM 75.2 °F - 71.6 °F 89% 29.97 in 10.0 mi ENE 3.5 mph - N/A   Clear
4:15 AM 75.2 °F - 71.6 °F 89% 29.96 in 10.0 mi Calm Calm - N/A   Clear
4:35 AM 75.2 °F - 71.6 °F 89% 29.96 in 10.0 mi NE 3.5 mph - N/A   Clear
4:55 AM 73.4 °F - 71.6 °F 94% 29.96 in 10.0 mi ENE 3.5 mph - N/A   Clear
5:15 AM 75.2 °F - 71.6 °F 89% 29.96 in 10.0 mi East 4.6 mph - N/A   Clear
5:35 AM 75.2 °F - 69.8 °F 83% 29.96 in 10.0 mi East 4.6 mph - N/A   Clear
5:55 AM 73.4 °F - 69.8 °F 88% 29.96 in 10.0 mi Calm Calm - N/A   Clear
6:15 AM 73.4 °F - 69.8 °F 88% 29.96 in 10.0 mi East 4.6 mph - N/A   Scattered Clouds
6:35 AM 75.2 °F - 71.6 °F 89% 29.97 in 10.0 mi East 4.6 mph - N/A   Mostly Cloudy
6:55 AM 75.2 °F - 71.6 °F 89% 29.97 in 10.0 mi East 3.5 mph - N/A   Scattered Clouds
7:15 AM 75.2 °F - 71.6 °F 89% 29.98 in 10.0 mi East 3.5 mph - N/A   Clear
7:35 AM 75.2 °F - 71.6 °F 89% 29.98 in 10.0 mi Calm Calm - N/A   Clear
7:55 AM 77.0 °F - 71.6 °F 83% 29.98 in 10.0 mi Calm Calm - N/A   Scattered Clouds
8:15 AM 77.0 °F - 71.6 °F 83% 29.98 in 10.0 mi Calm Calm - N/A   Scattered Clouds
8:35 AM 78.8 °F - 71.6 °F 78% 29.99 in 10.0 mi East 3.5 mph - N/A   Clear
8:55 AM 80.6 °F 85.4 °F 73.4 °F 79% 29.99 in 10.0 mi ESE 4.6 mph - N/A   Clear
9:15 AM 82.4 °F 88.2 °F 73.4 °F 74% 29.99 in 10.0 mi ESE 4.6 mph - N/A   Clear
9:35 AM 82.4 °F 88.2 °F 73.4 °F 74% 29.99 in 10.0 mi ESE 4.6 mph - N/A   Clear
9:55 AM 86.0 °F 93.4 °F 73.4 °F 66% 30.00 in 10.0 mi SSE 6.9 mph - N/A   Clear
10:15 AM 86.0 °F 91.8 °F 71.6 °F 62% 30.00 in 10.0 mi SSE 9.2 mph - N/A   Clear
10:35 AM 86.0 °F 91.8 °F 71.6 °F 62% 30.00 in 10.0 mi SSE 8.1 mph - N/A   Scattered Clouds
10:55 AM 86.0 °F 91.8 °F 71.6 °F 62% 30.00 in 10.0 mi South 8.1 mph - N/A   Mostly Cloudy
11:15 AM 87.8 °F 93.8 °F 71.6 °F 58% 30.00 in 10.0 mi South 10.4 mph - N/A   Mostly Cloudy
11:35 AM 86.0 °F 91.8 °F 71.6 °F 62% 30.00 in 10.0 mi SSE 9.2 mph - N/A Rain Light Rain
11:55 AM 87.8 °F 93.8 °F 71.6 °F 58% 30.00 in 10.0 mi SE 18.4 mph 23.0 mph N/A   Overcast
12:15 PM 87.8 °F 93.8 °F 71.6 °F 58% 30.00 in 10.0 mi SE 9.2 mph 16.1 mph N/A   Scattered Clouds
12:35 PM 89.6 °F 94.7 °F 69.8 °F 52% 29.99 in 10.0 mi SE 6.9 mph - N/A   Clear
1:15 PM 87.8 °F 92.6 °F 69.8 °F 55% 29.97 in 10.0 mi SE 9.2 mph 17.3 mph N/A   Scattered Clouds
1:35 PM 89.6 °F 94.7 °F 69.8 °F 52% 29.96 in 10.0 mi SE 8.1 mph - N/A   Scattered Clouds
1:55 PM 91.4 °F 96.8 °F 69.8 °F 49% 29.94 in 10.0 mi SE 9.2 mph - N/A   Scattered Clouds
2:15 PM 93.2 °F 98.8 °F 69.8 °F 46% 29.94 in 10.0 mi ESE 12.7 mph 16.1 mph N/A   Scattered Clouds
2:35 PM 91.4 °F 96.8 °F 69.8 °F 49% 29.93 in 10.0 mi SE 8.1 mph 16.1 mph N/A   Scattered Clouds
2:55 PM 91.4 °F 95.4 °F 68.0 °F 46% 29.92 in 10.0 mi SE 11.5 mph 16.1 mph N/A   Scattered Clouds
3:15 PM 82.4 °F 87.2 °F 71.6 °F 70% 29.92 in 2.5 mi South 21.9 mph 41.4 mph 0.08 in Rain Heavy Rain
3:35 PM 80.6 °F 84.6 °F 71.6 °F 74% 29.93 in 10.0 mi ENE 8.1 mph - 0.28 in Thunderstorm Thunderstorm
3:55 PM 82.4 °F 87.2 °F 71.6 °F 70% 29.92 in 10.0 mi ESE 6.9 mph - 0.28 in   Scattered Clouds
4:15 PM 84.2 °F 88.4 °F 69.8 °F 62% 29.91 in 10.0 mi SE 3.5 mph - N/A   Scattered Clouds
4:35 PM 87.8 °F 93.8 °F 71.6 °F 58% 29.91 in 10.0 mi East 10.4 mph - N/A   Scattered Clouds
4:55 PM 87.8 °F 95.6 °F 73.4 °F 62% 29.91 in 10.0 mi East 6.9 mph - N/A   Scattered Clouds
5:35 PM 86.0 °F 91.8 °F 71.6 °F 62% 29.90 in 10.0 mi East 10.4 mph 17.3 mph N/A Thunderstorm Clear
5:55 PM 82.4 °F 86.3 °F 69.8 °F 66% 29.91 in 10.0 mi East 13.8 mph 21.9 mph N/A   Scattered Clouds
6:15 PM 80.6 °F 83.2 °F 68.0 °F 65% 29.91 in 10.0 mi East 10.4 mph - N/A   Clear
6:35 PM 82.4 °F 86.3 °F 69.8 °F 66% 29.90 in 10.0 mi East 9.2 mph 16.1 mph N/A   Clear
6:55 PM 80.6 °F 84.6 °F 71.6 °F 74% 29.90 in 10.0 mi East 8.1 mph - N/A   Clear
7:15 PM 80.6 °F 84.6 °F 71.6 °F 74% 29.91 in 10.0 mi East 6.9 mph - N/A   Clear
7:35 PM 80.6 °F 84.6 °F 71.6 °F 74% 29.91 in 10.0 mi East 8.1 mph - N/A   Clear
7:55 PM 80.6 °F 84.6 °F 71.6 °F 74% 29.92 in 10.0 mi East 5.8 mph - N/A   Clear
8:15 PM 80.6 °F 84.6 °F 71.6 °F 74% 29.92 in 10.0 mi ESE 3.5 mph - N/A   Clear
8:35 PM 80.6 °F 84.6 °F 71.6 °F 74% 29.93 in 10.0 mi SE 6.9 mph - N/A   Clear
8:55 PM 80.6 °F 84.6 °F 71.6 °F 74% 29.94 in 10.0 mi SE 4.6 mph - N/A   Clear
9:55 PM 80.6 °F 84.6 °F 71.6 °F 74% 29.96 in 10.0 mi Calm Calm - N/A   Clear
10:15 PM 80.6 °F 84.6 °F 71.6 °F 74% 29.97 in 10.0 mi Calm Calm - N/A   Clear
10:35 PM 78.8 °F - 71.6 °F 78% 29.97 in 10.0 mi East 3.5 mph - N/A   Clear
10:55 PM 78.8 °F - 71.6 °F 78% 29.98 in 10.0 mi ESE 3.5 mph - N/A   Scattered Clouds
11:15 PM 78.8 °F - 73.4 °F 83% 29.98 in 10.0 mi East 3.5 mph - N/A   Scattered Clouds
11:35 PM 78.8 °F - 73.4 °F 83% 29.98 in 10.0 mi ESE 3.5 mph - N/A   Clear
11:55 PM 78.8 °F - 71.6 °F 78% 29.98 in 10.0 mi ESE 3.5 mph - N/A   Clear